Regional Weather Roundup
Issued by NWS Upton, NY

Current Version | Previous Version | Graphics & Text | Print | Product List | Glossary Off
Versions: 1 2 3 4 5 6 7 8 9 10 11 12 13 14 15 16 17 18 19 20 21 22 23 24 25 26 27 28 29 30 31 32 33 34 35 36 37 38 39 40 41 42 43 44 45 46 47 48

000
ASUS41 KOKX 211005
RWROKX

REGIONAL WEATHER ROUNDUP
NATIONAL WEATHER SERVICE NEW YORK NY
600 AM EDT TUE OCT 21 2014

NOTE: "FAIR" INDICATES FEW OR NO CLOUDS BELOW 12,000 FEET WITH NO
SIGNIFICANT WEATHER AND/OR OBSTRUCTIONS TO VISIBILITY.

NYZ071-072-176-178-NJZ106-104-211100-
NEW YORK CITY METRO AREA


CITY           SKY/WX    TMP DP  RH WIND       PRES   REMARKS
CENTRAL PARK   CLOUDY    56  45  66 CALM      29.92S
LAGUARDIA APRT CLOUDY    57  46  66 S3        29.90S
KENNEDY INTL   CLOUDY    55  48  77 SW3       29.91S
NEWARK/LIBERTY CLOUDY    55  45  68 CALM      29.90S
BRNX BOT. GARD   N/A     52  45  76 NE2       29.91F
TETERBORO      CLOUDY    51  44  77 NW3       29.89F
$$

NYZ177-179-078>081-211100-
LONG ISLAND NEW YORK

CITY           SKY/WX    TMP DP  RH WIND       PRES   REMARKS
FARMINGDALE    CLOUDY    52  47  83 CALM      29.91S
ISLIP          CLOUDY    51  47  86 CALM      29.89S
SHIRLEY        CLOUDY    49  46  90 CALM      29.92S
WESTHAMPTON    CLOUDY    49  45  86 CALM      29.93F
MONTAUK POINT    N/A     55  52  89 CALM      29.94F
$$

NYZ052-065-067-211100-
HUDSON VALLEY

CITY           SKY/WX    TMP DP  RH WIND       PRES   REMARKS
WHITE PLAINS   MOCLDY    49  45  86 CALM      29.89F
NEWBURGH       LGT RAIN  48  46  93 CALM      29.91F
MONTGOMERY     CLOUDY    46  44  93 CALM      29.90S
POUGHKEEPSIE   LGT RAIN  49  45  86 CALM      29.91S
ALBANY         LGT RAIN  49  45  86 CALM      29.90S
$$

NJZ001-105-106-008-010-013-015-019>022-104-211100-
NEW JERSEY

CITY           SKY/WX    TMP DP  RH WIND       PRES   REMARKS
NEWARK/LIBERTY CLOUDY    55  45  68 CALM      29.90S
TETERBORO      CLOUDY    51  44  77 NW3       29.89F
CALDWELL       CLOUDY    47  42  83 CALM      29.90F
MORRISTOWN     CLOUDY    46  43  87 CALM      29.90F
SOMERVILLE     LGT RAIN  47  44  90 NW3       29.87F
SUSSEX         CLOUDY    49  45  86 CALM      29.89F
ANDOVER          N/A     49  46  90 CALM      29.88F
TRENTON        CLOUDY    49  45  86 SE5       29.88F
MILLVILLE      MOCLDY    52  50  93 CALM      29.87F
ATLANTIC CITY  MOCLDY    49  46  90 CALM      29.89S
WRIGHTSTOWN    CLOUDY    49  47  93 CALM      29.86F
TOMS RIVER     CLOUDY    48  45  87 CALM      29.89F
BELMAR         CLOUDY    54  43  66 S5        29.88F
$$

PAZ047>061-062-071-211100-
EASTERN PENNSYLVANIA

CITY           SKY/WX    TMP DP  RH WIND       PRES   REMARKS
PHILADELPHIA   CLOUDY    53  48  83 CALM      29.87F
ALLENTOWN      CLOUDY    51  48  89 NE5       29.87S
SCRANTON       CLOUDY    51  46  83 CALM      29.85S
$$

CTZ002-004>006-009-010-012-RIZ004-006-007-MAZ004-011-015-211100-
SOUTHERN NEW ENGLAND
 IN CT

CITY           SKY/WX    TMP DP  RH WIND       PRES   REMARKS
BRADLEY INTL   CLOUDY    45  41  86 CALM      29.92S
HARTFORD       CLOUDY    47  44  90 VRB3      29.93S
DANBURY        MOCLDY    43  31  62 CALM      29.93R
WTRBRY/OXFORD  MOCLDY    46  39  76 CALM      29.91S
BRIDGEPORT     CLOUDY    52  48  86 NE3       29.91S
MERIDEN        CLOUDY    45  42  89 N3        29.93S
NEW HAVEN      CLOUDY    51  46  83 N3        29.91F
CHESTER        FAIR      46  46 100 CALM      29.93S
GROTON         CLOUDY    48  48 100 N5        29.93S
WILLIMANTIC    CLOUDY    41  38  89 CALM      29.95S

 IN RI

CITY           SKY/WX    TMP DP  RH WIND       PRES   REMARKS
PROVIDENCE     CLOUDY    48  46  93 N3        29.95F
BLOCK ISLAND   CLOUDY    55  52  88 SE6       29.93F
WESTERLY       CLOUDY    50  49  96 CALM      29.94F

 IN MA

CITY           SKY/WX    TMP DP  RH WIND       PRES   REMARKS
BOSTON         CLOUDY    52  50  93 CALM      29.98S
WORCESTER      CLOUDY    45  41  86 CALM      29.95S
WESTFIELD      MOCLDY    44  41  89 NE3       29.93S
PROVINCETOWN   MOCLDY    54  48  82 SE6       29.99S
NANTUCKET      CLOUDY    56  53  90 E9        29.98F
$$

ANZ330-335-338-340-345-350-353-355-211100-
COASTAL MARINE OBSERVATIONS


STATION/POSITION TIME  SKY/WX   TEMP    WIND        PRES    VSBY  WAVE
                                AIR SEA DIR/SP/G                  HT/PER
                 (UTC)          (F)     (DEG/KT/KT) (MB)    (MI)  (FT/S)
NY HARB ENTRANCE NOT AVBL
4S FIRE IS       1000               63                N/A           4/ 7
20S FIRE ISLAND  1000            63 63  240/  6/  8 1012.6          4/ 6
23SW MTP         1000                                 N/A           5/ 6
HUDSON CANYON    1000            64 66  210/  6/ 10 1012.9          4/ 6
EXECUTION ROCKS  1000            57 63   20/  4/  6   N/A
WESTERN LI SOUND 1000            58      10/  4/  6   N/A           0
CENTRAL LI SOUND 0900            61 63  190/  4/  6   N/A           1
EASTERN LI SOUND 0900            57 63   20/  6/  8   N/A
ROBBINS REEF     1000            57     290/  5/  6 1011.2
$$


>>>>>>>>>>>>>>>>>>>>>>>>>>>> KEY <<<<<<<<<<<<<<<<<<<<<<<<<<<
>                                                          <
>     SKY/WX - SKY CONDITION/PRESENT WEATHER               <
>     TMP    - TEMPERATURE IN FAHRENHEIT                   <
>     DP     - DEWPOINT IN FAHRENHEIT                      <
>     RH     - RELATIVE HUMIDITY IN PERCENT                <
>     WIND   - DIRECTION AND SPEED IN MPH                  <
>     PRES   - MEAN SEA LEVEL PRESSURE IN INCHES OF HG     <
>     WCI    - WIND CHILL INDEX                            <
>     VSB    - VISIBILITY IN MILES                         <
>     HX     - HEAT INDEX                                  <
>     TC     - TEMPERATURE IN CELSIUS                      <
>     VRB    - VARIABLE WIND DIRECTION                     <
>                                                          <
>>>>>>>>>>>>>>>>>>>>>>>>>>>> KEY <<<<<<<<<<<<<<<<<<<<<<<<<<<




USA.gov is the U.S. government's official web portal to all federal, state and local government web resources and services.